Tracking 19920 objects as of 15-Oct-2019
HD Live streaming from Space Station
objects crossing your sky now

TDRS 10

Track TDRS 10 now!
TDRS 10 is classified as:


NORAD ID: 27566
Int'l Code: 2002-055A
Perigee: 35,778.5 km
Apogee: 35,809.8 km
Inclination: 6.5 °
Period: 1,436.1 minutes
Semi major axis: 42165 km
RCS: 5.0118 m2 (large)
Launch date: December 5, 2002
Source: United States (US)
Launch site: AIR FORCE EASTERN TEST RANGE (AFETR)

Tracking and communications with space shuttle, other missions.
aabbcc
Your satellite tracking list
Your tracking list is empty




NASA's NSSDC Master Catalog

Two Line Element Set (TLE):
1 27566U 02055A   19288.48574642  .00000097  00000-0  00000+0 0  9991
2 27566   6.4815  54.7043 0003712 264.6856  68.0318  1.00270418 61797
Source of the keplerian elements: AFSPC